Regional Weather Roundup
Issued by NWS

Home | Current Version | Previous Version | Graphics & Text | Print | Product List | Glossary On
Versions: 1 2 3 4 5 6 7 8 9 10 11 12 13 14 15 16 17 18 19 20 21 22 23 24 25 26 27 28 29 30 31 32 33 34 35 36 37 38 39 40 41 42 43 44 45 46 47 48 49 50
000
ASUS43 KMPX 220010
RWRMN
WEATHER ROUNDUP FOR MINNESOTA
NATIONAL WEATHER SERVICE TWIN CITIES/CHANHASSEN MN
700 PM CDT THU SEP 21 2017


NOTE: "FAIR" INDICATES FEW OR NO CLOUDS BELOW 12,000 FEET WITH NO
SIGNIFICANT WEATHER AND/OR OBSTRUCTIONS TO VISIBILITY. N/A MEANS
CURRENT SKY AND/OR WEATHER CONDITIONS ARE NOT AVAILABLE.

MNZ060>063-068>070-220100-
   Twin Cities Metro

CITY           SKY/WX    TMP DP  RH WIND       PRES   REMARKS
TWIN CITIES    PTCLDY    81  70  69 E12       29.79F
6HR MIN TEMP:  76; 6HR MAX TEMP:  84;

ST PAUL        PTCLDY    78  69  73 E10       29.80F
CRYSTAL        CLEAR     80  65  59 E7        29.77F
BLAINE         PTCLDY    81  68  65 E9        29.80F
LAKEVILLE      PTCLDY    79  70  73 E6        29.79F
EDEN PRAIRIE   MOCLDY    83  69  62 E10       29.77F
6HR MIN TEMP:  77; 6HR MAX TEMP:  84;

SOUTH ST PAUL  PTCLDY    80  67  62 SE7       29.80S
LAKE ELMO      FAIR      77  68  73 E7        29.83S
$$
MNZ001>005-007-008-013>017-022>024-027-028-220100-
   Northwest Minnesota

CITY           SKY/WX    TMP DP  RH WIND       PRES   REMARKS
BEMIDJI        PTCLDY    69  51  52 SE10      29.79R
HALLOCK          N/A     77  45  31 S7        29.70R
ROSEAU         PTCLDY    72  52  49 SE7       29.74R
WARROAD        CLEAR     72  54  53 SE9       29.75R
THIEF RVR FALL MOCLDY    73  51  46 SE12      29.74R
CROOKSTON      PTCLDY    75  54  46 S12       29.71R
FOSSTON        CLEAR     70  52  52 SE7       29.75S
DETROIT LAKES  CLEAR     72  57  60 SE15      29.75S
MOORHEAD       PTCLDY    75  61  60 SE3       29.69S
PARK RAPIDS    MOCLDY    72  56  57 E8        29.78F
MAHNOMEN       CLOUDY    73  55  53 SE13      29.73S
$$
MNZ006-009>011-018-025>026-220100-
   North Central Minnesota

CITY           SKY/WX    TMP DP  RH WIND       PRES   REMARKS
BAUDETTE       CLOUDY    69  51  52 SE9       29.78R
FLAG ISLAND    MOCLDY    70  52  52 SE7       29.75R
INTL FALLS     PTCLDY    64  51  62 SE7       29.82F
6HR MIN TEMP:  64; 6HR MAX TEMP:  72;

WASKISH        MOCLDY    70  52  52 SE6       29.79S
BIG FORK       PTCLDY    66  52  59 SE3       29.83S
LONGVILLE      PTCLDY    70  55  60 SE6       29.81R
GRAND RAPIDS   CLEAR     69  57  65 SE9       29.85S
CRANE LAKE     CLEAR     63  50  63 CALM      29.88R
ORR            CLEAR     64  48  55 SE3       29.84R
COOK           CLEAR     66  54  63 SE5       29.87S
WALKER         CLOUDY    68  55  62 CALM      29.80R
$$
MNZ012-019>021-037-220100-
   Northeast Minnesota

CITY           SKY/WX    TMP DP  RH WIND       PRES   REMARKS
DULUTH         CLEAR     61  56  83 E15G23    29.89F
6HR MIN TEMP:  61; 6HR MAX TEMP:  70;

ELY            CLEAR     63  50  63 SE10      29.90F
HIBBING        CLEAR     65  56  72 SE13      29.86S
EVELETH        CLEAR     64  48  55 E6        29.90R
DULUTH HARBOR  PTCLDY    63  59  88 NE22      29.89S
TWO HARBORS    CLEAR     64  55  72 E15       29.91S
SILVER BAY     CLEAR     61  54  77 NE9G18    29.92F
GRAND MARAIS     N/A     62  48  60 NE10      29.95F
G MARAIS ARPRT CLEAR     55  45  67 E8        29.99F
$$
MNZ029>031-032-039>041-046>048-054>057-064-220100-
   West Central Minnesota

CITY           SKY/WX    TMP DP  RH WIND       PRES   REMARKS
FERGUS FALLS   CLOUDY    75  64  69 SE13      29.69F
WHEATON        CLEAR     79  66  65 SE7       29.68S
MORRIS         CLEAR     81  70  69 SE13      29.69R
ALEXANDRIA     CLOUDY    77  68  73 SE14      29.76R
ELBOW LAKE     MOCLDY    76  68  77 SE9       29.71S HAZE
WADENA         MOCLDY    73  63  68 SE10      29.76S
GLENWOOD       CLEAR     75  68  78 SE10      29.75S
APPLETON       CLEAR     81  70  69 SE9       29.68S
BENSON         MOCLDY    81  70  69 SE10      29.72R
ORTONVILLE     CLEAR     81  70  69 NE9       29.67S
MADISON        CLEAR     82  73  74 SE8       29.69R
WILLMAR        FAIR      79  70  73 SE8       29.75R
$$
MNZ033>034-036-042>043-049>051-058-059-220100-
   Central Minnesota

CITY           SKY/WX    TMP DP  RH WIND       PRES   REMARKS
ST CLOUD       PTCLDY    77  68  73 E8        29.77F
6HR MIN TEMP:  74; 6HR MAX TEMP:  80;

SAUK CENTRE    MOCLDY    74  68  79 E8        29.76S
PAYNESVILLE    CLOUDY    78  69  73 SE9       29.77R
AITKIN         PTCLDY    70  59  68 E8        29.82R
PINE RIVER     CLOUDY    70  57  64 SE7       29.84R
BRAINERD       CLOUDY    73  62  68 SE6       29.80S
STAPLES        CLOUDY    73  61  64 E5        29.78S
LITTLE FALLS   PTCLDY    73  59  60 E8        29.78S
LITCHFIELD     CLEAR     79  72  78 E8        29.77R
BUFFALO        CLEAR     78  67  69 E3        29.78F
MAPLE LAKE     PTCLDY    78  70  77 E6        29.78S
HUTCHINSON     CLEAR     79  72  78 E6        29.77R
$$
MNZ037-044-045-052-053-220100-
   East Central Minnesota

CITY           SKY/WX    TMP DP  RH WIND       PRES   REMARKS
PRINCETON      CLEAR     79  68  69 E7        29.80F
MORA           CLOUDY    73  64  73 SE5       29.84S
CAMBRIDGE      MOCLDY    81  66  61 SE3       29.82S
RUSH CITY      MOCLDY    76  67  73 SE3       29.84R
MOOSE LAKE     MOCLDY    63  57  82 E3        29.86R
HINCKLEY       MOCLDY    77  70  78 E6        29.84R
CLOQUET        CLEAR     63  55  77 E10G17    29.88F
MCGREGOR       CLEAR     66  59  77 E9        29.85R
$$
MNZ071>073-080-081-089-090-097-098-220100-
   Southwest Minnesota

CITY           SKY/WX    TMP DP  RH WIND       PRES   REMARKS
MONTEVIDEO     PTCLDY    82  72  69 S10G16    29.70R
GRANITE FALLS  CLEAR     83  71  66 SE10      29.72R
CANBY          CLEAR     82  70  65 SE6       29.70R
MARSHALL       CLEAR     82  71  69 S16G23    29.70R
REDWOOD FALLS  CLEAR     82  69  64 S10       29.72R
OLIVIA         CLEAR     79  70  73 SE7       29.73R
PIPESTONE      CLEAR     81  72  74 S13G18    29.72S
WORTHINGTON    MOCLDY    80  71  74 S10       29.76S
JACKSON        CLEAR     81  68  65 S8G16     29.78R
TRACY          CLEAR     82  71  70 S13G21    29.72S
SLAYTON        CLEAR     80  69  69 SE14G20   29.74S
$$
MNZ065>067-074>077-082>085-091>093-220100-
   South Central Minnesota

CITY           SKY/WX    TMP DP  RH WIND       PRES   REMARKS
MANKATO        CLEAR     83  70  64 S8        29.77F
NEW ULM        CLEAR     82  68  61 S9        29.75R
ST JAMES       CLEAR     82  70  65 SE7       29.77R
FAIRMONT       CLEAR     83  71  67 S15       29.77R
GLENCOE        CLEAR     80  73  81 E6        29.76S
FARIBAULT      CLOUDY    82  70  65 SE9       29.80F
OWATONNA       PTCLDY    82  70  65 SE7       29.81S
WASECA         MOCLDY    79  68  69 SE6       29.81S
ALBERT LEA     CLEAR     86  70  58 S6        29.82R HX  90
$$
MNZ078>079-086>088-094>096-220100-
   Southeast Minnesota

CITY           SKY/WX    TMP DP  RH WIND       PRES   REMARKS
ROCHESTER      PTCLDY    80  67  64 SE10      29.85F
6HR MIN TEMP:  77; 6HR MAX TEMP:  86;

RED WING       CLEAR     81  64  57 E5        29.82S
STANTON        MOCLDY    82  69  64 SE6       29.79S
DODGE CENTER   CLEAR     81  64  57 SE7       29.84S
WINONA         CLEAR     79  64  61 SE6       29.87R
AUSTIN         PTCLDY    84  66  54 S6        29.83S
PRESTON        PTCLDY    79  63  58 SE10      29.89R
$$
ABBREVIATIONS USED IN REMARKS
   TC - TEMPERATURES IN CELSIUS
  WCI - WIND CHILL INDEX
   HX - HEAT INDEX
  VSB - VISIBILITY
$$




USA.gov is the U.S. government's official web portal to all federal, state and local government web resources and services.